Time,TemperatureF,DewpointF,PressureIn,WindDirection,WindDirectionDegrees,WindSpeedMPH,WindSpeedGustMPH,Humidity,HourlyPrecipIn,Conditions,Clouds,dailyrainin,SolarRadiationWatts/m^2,SoftwareType,DateUTC
2013-04-24 00:01:00,59.0,56.0,-100.00,ENE,70,4.0,4.0,91,0.00,,,0.00,0.000000,,2013-04-24 04:01:00,
2013-04-24 00:33:00,56.0,55.0,-100.00,East,83,3.0,4.0,96,0.00,,,0.00,0.000000,,2013-04-24 04:33:00,
2013-04-24 00:43:00,56.0,55.0,-100.00,East,83,3.0,4.0,96,0.00,,,0.00,0.000000,,2013-04-24 04:43:00,
2013-04-24 00:53:00,56.0,55.0,-100.00,East,83,3.0,4.0,96,0.00,,,0.00,0.000000,,2013-04-24 04:53:00,
2013-04-24 01:02:00,56.0,55.0,-100.00,East,83,3.0,4.0,96,0.00,,,0.00,0.000000,,2013-04-24 05:02:00,
2013-04-24 01:32:00,54.0,53.0,-100.00,ENE,61,3.0,4.0,96,0.00,,,0.00,0.000000,,2013-04-24 05:32:00,
2013-04-24 01:42:00,54.0,53.0,-100.00,ENE,61,3.0,4.0,96,0.00,,,0.00,0.000000,,2013-04-24 05:42:00,
2013-04-24 01:52:00,54.0,53.0,-100.00,ENE,61,3.0,4.0,96,0.00,,,0.00,0.000000,,2013-04-24 05:52:00,
2013-04-24 02:02:00,54.0,53.0,-100.00,ENE,61,3.0,4.0,96,0.00,,,0.00,0.000000,,2013-04-24 06:02:00,
2013-04-24 02:33:00,53.0,52.0,-100.00,North,357,3.0,5.0,97,0.00,,,0.00,0.000000,,2013-04-24 06:33:00,
2013-04-24 02:42:00,53.0,52.0,-100.00,North,357,3.0,5.0,97,0.00,,,0.00,0.000000,,2013-04-24 06:42:00,
2013-04-24 02:52:00,53.0,52.0,-100.00,North,357,3.0,5.0,97,0.00,,,0.00,0.000000,,2013-04-24 06:52:00,
2013-04-24 03:02:00,53.0,52.0,-100.00,North,357,3.0,5.0,97,0.00,,,0.00,0.000000,,2013-04-24 07:02:00,
2013-04-24 03:32:00,52.0,51.0,-100.00,North,8,0.0,0.0,98,0.00,,,0.00,0.000000,,2013-04-24 07:32:00,
2013-04-24 03:42:00,52.0,51.0,-100.00,North,8,0.0,0.0,98,0.00,,,0.00,0.000000,,2013-04-24 07:42:00,
2013-04-24 03:52:00,52.0,51.0,-100.00,North,8,0.0,0.0,98,0.00,,,0.00,0.000000,,2013-04-24 07:52:00,
2013-04-24 04:02:00,52.0,51.0,-100.00,North,8,0.0,0.0,98,0.00,,,0.00,0.000000,,2013-04-24 08:02:00,
2013-04-24 04:33:00,51.0,50.0,-100.00,NW,320,0.0,0.0,97,0.00,,,0.00,0.000000,,2013-04-24 08:33:00,
2013-04-24 04:42:00,51.0,50.0,-100.00,NW,320,0.0,0.0,97,0.00,,,0.00,0.000000,,2013-04-24 08:42:00,
2013-04-24 04:52:00,51.0,50.0,-100.00,NW,320,0.0,0.0,97,0.00,,,0.00,0.000000,,2013-04-24 08:52:00,
2013-04-24 05:02:00,51.0,50.0,-100.00,NW,320,0.0,0.0,97,0.00,,,0.00,0.000000,,2013-04-24 09:02:00,
2013-04-24 05:21:00,51.0,50.0,-100.00,NNW,335,0.0,3.0,98,0.00,,,0.00,0.000000,,2013-04-24 09:21:00,
2013-04-24 05:33:00,51.0,50.0,-100.00,NNW,335,0.0,3.0,98,0.00,,,0.00,0.000000,,2013-04-24 09:33:00,
2013-04-24 05:42:00,51.0,50.0,-100.00,NNW,335,0.0,3.0,98,0.00,,,0.00,0.000000,,2013-04-24 09:42:00,
2013-04-24 05:53:00,51.0,50.0,-100.00,NNW,335,0.0,3.0,98,0.00,,,0.00,0.000000,,2013-04-24 09:53:00,
2013-04-24 06:02:00,51.0,50.0,-100.00,NNW,335,0.0,3.0,98,0.00,,,0.00,0.000000,,2013-04-24 10:02:00,
2013-04-24 06:33:00,51.0,50.0,-100.00,NNE,26,0.0,0.0,98,0.00,,,0.00,0.000000,,2013-04-24 10:33:00,
2013-04-24 06:42:00,51.0,50.0,-100.00,NNE,26,0.0,0.0,98,0.00,,,0.00,0.000000,,2013-04-24 10:42:00,
2013-04-24 06:53:00,51.0,50.0,-100.00,NNE,26,0.0,0.0,98,0.00,,,0.00,0.000000,,2013-04-24 10:53:00,
2013-04-24 07:02:00,51.0,50.0,-100.00,NNE,26,0.0,0.0,98,0.00,,,0.00,0.000000,,2013-04-24 11:02:00,
2013-04-24 07:22:00,49.0,49.0,-100.00,ENE,65,0.0,0.0,99,0.00,,,0.00,2.000000,,2013-04-24 11:22:00,
2013-04-24 07:32:00,49.0,49.0,-100.00,ENE,65,0.0,0.0,99,0.00,,,0.00,2.000000,,2013-04-24 11:32:00,
2013-04-24 07:43:00,49.0,49.0,-100.00,ENE,65,0.0,0.0,99,0.00,,,0.00,2.000000,,2013-04-24 11:43:00,
2013-04-24 07:53:00,49.0,49.0,-100.00,ENE,65,0.0,0.0,99,0.00,,,0.00,2.000000,,2013-04-24 11:53:00,
2013-04-24 08:02:00,49.0,49.0,-100.00,ENE,65,0.0,0.0,99,0.00,,,0.00,2.000000,,2013-04-24 12:02:00,
2013-04-24 08:32:00,55.0,54.0,-100.00,ENE,60,0.0,0.0,97,0.00,,,0.00,1.000000,,2013-04-24 12:32:00,
2013-04-24 08:42:00,55.0,54.0,-100.00,ENE,60,0.0,0.0,97,0.00,,,0.00,1.000000,,2013-04-24 12:42:00,
2013-04-24 08:52:00,55.0,54.0,-100.00,ENE,60,0.0,0.0,97,0.00,,,0.00,1.000000,,2013-04-24 12:52:00,
2013-04-24 09:01:00,55.0,54.0,-100.00,ENE,60,0.0,0.0,97,0.00,,,0.00,1.000000,,2013-04-24 13:01:00,
2013-04-24 09:32:00,67.0,62.0,-100.00,ESE,105,0.0,0.0,83,0.00,,,0.00,0.000000,,2013-04-24 13:32:00,
2013-04-24 09:42:00,67.0,62.0,-100.00,ESE,105,0.0,0.0,83,0.00,,,0.00,0.000000,,2013-04-24 13:42:00,
2013-04-24 09:52:00,67.0,62.0,-100.00,ESE,105,0.0,0.0,83,0.00,,,0.00,0.000000,,2013-04-24 13:52:00,
2013-04-24 10:01:00,67.0,62.0,-100.00,ESE,105,0.0,0.0,83,0.00,,,0.00,0.000000,,2013-04-24 14:01:00,
2013-04-24 10:22:00,75.0,61.0,-100.00,ESE,123,2.0,11.0,62,0.00,,,0.00,0.000000,,2013-04-24 14:22:00,
2013-04-24 10:32:00,75.0,61.0,-100.00,ESE,123,2.0,11.0,62,0.00,,,0.00,0.000000,,2013-04-24 14:32:00,
2013-04-24 10:42:00,75.0,61.0,-100.00,ESE,123,2.0,11.0,62,0.00,,,0.00,0.000000,,2013-04-24 14:42:00,
2013-04-24 10:52:00,75.0,61.0,-100.00,ESE,123,2.0,11.0,62,0.00,,,0.00,0.000000,,2013-04-24 14:52:00,
2013-04-24 11:01:00,75.0,61.0,-100.00,ESE,123,2.0,11.0,62,0.00,,,0.00,0.000000,,2013-04-24 15:01:00,
2013-04-24 11:33:00,78.0,59.0,-100.00,SE,133,7.0,7.0,52,0.00,,,0.00,783.000000,,2013-04-24 15:33:00,
2013-04-24 11:43:00,78.0,59.0,-100.00,SE,133,7.0,7.0,52,0.00,,,0.00,783.000000,,2013-04-24 15:43:00,
2013-04-24 11:53:00,78.0,59.0,-100.00,SE,133,7.0,7.0,52,0.00,,,0.00,783.000000,,2013-04-24 15:53:00,
2013-04-24 12:03:00,78.0,59.0,-100.00,SE,133,7.0,7.0,52,0.00,,,0.00,783.000000,,2013-04-24 16:03:00,
2013-04-24 12:23:00,80.0,56.0,-100.00,South,177,6.0,6.0,44,0.00,,,0.00,978.000000,,2013-04-24 16:23:00,
2013-04-24 12:32:00,80.0,56.0,-100.00,South,177,6.0,6.0,44,0.00,,,0.00,978.000000,,2013-04-24 16:32:00,
2013-04-24 12:42:00,80.0,56.0,-100.00,South,177,6.0,6.0,44,0.00,,,0.00,978.000000,,2013-04-24 16:42:00,
2013-04-24 12:53:00,80.0,56.0,-100.00,South,177,6.0,6.0,44,0.00,,,0.00,978.000000,,2013-04-24 16:53:00,
2013-04-24 13:02:00,80.0,56.0,-100.00,South,177,6.0,6.0,44,0.00,,,0.00,978.000000,,2013-04-24 17:02:00,
2013-04-24 13:32:00,84.0,57.0,-100.00,North,0,2.0,6.0,40,0.00,,,0.00,1078.000000,,2013-04-24 17:32:00,
2013-04-24 13:42:00,84.0,57.0,-100.00,North,0,2.0,6.0,40,0.00,,,0.00,1078.000000,,2013-04-24 17:42:00,
2013-04-24 13:52:00,84.0,57.0,-100.00,North,0,2.0,6.0,40,0.00,,,0.00,1078.000000,,2013-04-24 17:52:00,
2013-04-24 14:02:00,84.0,57.0,-100.00,North,0,2.0,6.0,40,0.00,,,0.00,1078.000000,,2013-04-24 18:02:00,
2013-04-24 14:33:00,87.0,51.0,-100.00,SW,227,6.0,8.0,29,0.00,,,0.00,1105.000000,,2013-04-24 18:33:00,
2013-04-24 14:43:00,87.0,51.0,-100.00,SW,227,6.0,8.0,29,0.00,,,0.00,1105.000000,,2013-04-24 18:43:00,
2013-04-24 14:52:00,87.0,51.0,-100.00,SW,227,6.0,8.0,29,0.00,,,0.00,1105.000000,,2013-04-24 18:52:00,
2013-04-24 15:02:00,87.0,51.0,-100.00,SW,227,6.0,8.0,29,0.00,,,0.00,1105.000000,,2013-04-24 19:02:00,
2013-04-24 15:22:00,88.0,51.0,-100.00,SSE,149,3.0,3.0,28,0.00,,,0.00,1012.000000,,2013-04-24 19:22:00,
2013-04-24 15:32:00,88.0,51.0,-100.00,SSE,149,3.0,3.0,28,0.00,,,0.00,1012.000000,,2013-04-24 19:32:00,
2013-04-24 15:42:00,88.0,51.0,-100.00,SSE,149,3.0,3.0,28,0.00,,,0.00,1012.000000,,2013-04-24 19:42:00,
2013-04-24 15:52:00,88.0,51.0,-100.00,SSE,149,3.0,3.0,28,0.00,,,0.00,1012.000000,,2013-04-24 19:52:00,
2013-04-24 16:02:00,88.0,51.0,-100.00,SSE,149,3.0,3.0,28,0.00,,,0.00,1012.000000,,2013-04-24 20:02:00,
2013-04-24 16:32:00,86.0,52.0,-100.00,ENE,67,4.0,8.0,31,0.00,,,0.00,724.000000,,2013-04-24 20:32:00,
2013-04-24 16:42:00,86.0,52.0,-100.00,ENE,67,4.0,8.0,31,0.00,,,0.00,724.000000,,2013-04-24 20:42:00,
2013-04-24 16:52:00,86.0,52.0,-100.00,ENE,67,4.0,8.0,31,0.00,,,0.00,724.000000,,2013-04-24 20:52:00,
2013-04-24 17:02:00,86.0,52.0,-100.00,ENE,67,4.0,8.0,31,0.00,,,0.00,724.000000,,2013-04-24 21:02:00,
2013-04-24 17:33:00,86.0,56.0,-100.00,NE,52,3.0,3.0,36,0.00,,,0.00,315.000000,,2013-04-24 21:33:00,
2013-04-24 17:43:00,86.0,56.0,-100.00,NE,52,3.0,3.0,36,0.00,,,0.00,315.000000,,2013-04-24 21:43:00,
2013-04-24 17:53:00,86.0,56.0,-100.00,NE,52,3.0,3.0,36,0.00,,,0.00,315.000000,,2013-04-24 21:53:00,
2013-04-24 18:03:00,86.0,56.0,-100.00,NE,52,3.0,3.0,36,0.00,,,0.00,315.000000,,2013-04-24 22:03:00,
2013-04-24 18:22:00,86.0,54.0,-100.00,East,79,4.0,5.0,34,0.00,,,0.00,474.000000,,2013-04-24 22:22:00,
2013-04-24 18:33:00,86.0,54.0,-100.00,East,79,4.0,5.0,34,0.00,,,0.00,474.000000,,2013-04-24 22:33:00,
2013-04-24 18:42:00,86.0,54.0,-100.00,East,79,4.0,5.0,34,0.00,,,0.00,474.000000,,2013-04-24 22:42:00,
2013-04-24 18:52:00,86.0,54.0,-100.00,East,79,4.0,5.0,34,0.00,,,0.00,474.000000,,2013-04-24 22:52:00,
2013-04-24 19:02:00,86.0,54.0,-100.00,East,79,4.0,5.0,34,0.00,,,0.00,474.000000,,2013-04-24 23:02:00,
2013-04-24 19:32:00,80.0,61.0,-100.00,East,99,10.0,14.0,53,0.00,,,0.00,7.000000,,2013-04-24 23:32:00,
2013-04-24 19:42:00,80.0,61.0,-100.00,East,99,10.0,14.0,53,0.00,,,0.00,7.000000,,2013-04-24 23:42:00,
2013-04-24 19:52:00,80.0,61.0,-100.00,East,99,10.0,14.0,53,0.00,,,0.00,7.000000,,2013-04-24 23:52:00,
2013-04-24 20:02:00,80.0,61.0,-100.00,East,99,10.0,14.0,53,0.00,,,0.00,7.000000,,2013-04-25 00:02:00,
2013-04-24 20:23:00,76.0,61.0,-100.00,ESE,112,9.0,11.0,60,0.00,,,0.00,0.000000,,2013-04-25 00:23:00,
2013-04-24 20:32:00,76.0,61.0,-100.00,ESE,112,9.0,11.0,60,0.00,,,0.00,0.000000,,2013-04-25 00:32:00,
2013-04-24 20:42:00,76.0,61.0,-100.00,ESE,112,9.0,11.0,60,0.00,,,0.00,0.000000,,2013-04-25 00:42:00,
2013-04-24 20:52:00,76.0,61.0,-100.00,ESE,112,9.0,11.0,60,0.00,,,0.00,0.000000,,2013-04-25 00:52:00,
2013-04-24 21:02:00,76.0,61.0,-100.00,ESE,112,9.0,11.0,60,0.00,,,0.00,0.000000,,2013-04-25 01:02:00,
2013-04-24 21:32:00,73.0,61.0,-100.00,ESE,120,7.0,10.0,65,0.00,,,0.00,0.000000,,2013-04-25 01:32:00,
2013-04-24 21:42:00,73.0,61.0,-100.00,ESE,120,7.0,10.0,65,0.00,,,0.00,0.000000,,2013-04-25 01:42:00,
2013-04-24 21:53:00,73.0,61.0,-100.00,ESE,120,7.0,10.0,65,0.00,,,0.00,0.000000,,2013-04-25 01:53:00,
2013-04-24 22:02:00,73.0,61.0,-100.00,ESE,120,7.0,10.0,65,0.00,,,0.00,0.000000,,2013-04-25 02:02:00,
2013-04-24 22:32:00,71.0,61.0,-100.00,SE,134,7.0,8.0,70,0.00,,,0.00,0.000000,,2013-04-25 02:32:00,
2013-04-24 22:42:00,71.0,61.0,-100.00,SE,134,7.0,8.0,70,0.00,,,0.00,0.000000,,2013-04-25 02:42:00,
2013-04-24 22:52:00,71.0,61.0,-100.00,SE,134,7.0,8.0,70,0.00,,,0.00,0.000000,,2013-04-25 02:52:00,
2013-04-24 23:02:00,71.0,61.0,-100.00,SE,134,7.0,8.0,70,0.00,,,0.00,0.000000,,2013-04-25 03:02:00,
2013-04-24 23:22:00,68.0,60.0,-100.00,SE,145,6.0,7.0,76,0.00,,,0.00,0.000000,,2013-04-25 03:22:00,
2013-04-24 23:33:00,68.0,60.0,-100.00,SE,145,6.0,7.0,76,0.00,,,0.00,0.000000,,2013-04-25 03:33:00,
2013-04-24 23:43:00,68.0,60.0,-100.00,SE,145,6.0,7.0,76,0.00,,,0.00,0.000000,,2013-04-25 03:43:00,
2013-04-24 23:52:00,68.0,60.0,-100.00,SE,145,6.0,7.0,76,0.00,,,0.00,0.000000,,2013-04-25 03:52:00,